H-2A R/B, 64695

Orbit data source: Space-Track

H-2A R/B, 64695 is space debris in SSO originally from a launch on Sat, 28 Jun 2025 UTC launched from the Tanegashima Space Center (TNSTA). Debris objects in space refer to the collection of defunct objects orbiting the Earth. Examples of debris include non-operational satellites, rocket bodies, and fragments generated from explosions, collisions, or faulty payload assembly.

Loading next visibility...
Identifier
64695, 2025-140B
Orbit
SSO
Last TLE update
12 hours ago
Origin
Flag of JPMHI (JP / JPN)
Manufacturer
MHI Tobishima
Mission
Spacecraft
Bus & Motor
H-2A STAGE 2, Unknown motor
Mass
4,000 kg wet, 4,000 kg dry
Launch date (UTC)
2025-06-28 (3 days ago)
Launch vehicle
Unknown
Launch site
Tanegashima Space Center (TNSTA)
Object type
Payload
Rocket body
Debris
Shape & HBR
Unknown
Radar Cross Section
RCS unknown

Expand to show TLE details & history

TLE from 12 hours ago
0 H-2A R/B
1 64695U 25141B   25181.88651767  .00001267  00000-0  13182-3 0  9992
2 64695  98.0462 120.5944 0093314 258.3695 100.7037 14.88675222   322
Epoch: 2025-06-30T21:16Z
TLE epoch observation values (Epoch: 2025-06-30T21:16:35.126Z)
Latitude
0.00002°
Longitude
-117.74185°
Altitude
617.788 km
Speed
7.543 km/s
True Right ascension
08h 02m 22s
True Declination
0° 00' 00"
Sunlit
Object was in daylight at epoch
Visualization orbit readout
Latitude
-13.77114°
Longitude
60.79844°
Altitude
577.84 km
Speed
7.587 km/s
Apparent Right ascension
17h 37m 25s
Apparent Declination
-66° 09' 19"
Sunlit
Object is in full shadow
Visualization observer readout
Local Sidereal Time
21:04:58
Azimuth
200.263° SSW
Elevation
-23.299°
Doppler factor
1
Orbital elements
Apogee altitude
664.217 km
Perigee altitude
534.002 km
Semi-major axis
6,977.246 km
Eccentricity
0.00933
Inclination
98.0462°
RAAN
120.5944°
Arg. of periapsis
258.3695°
True anomaly
Unknown
Mean anomaly
100.7037°
Eccentric anomaly
Unknown
Mean motion
3.72406 °/min
Orbital period
96.67 mins
BSTAR
0.00013182
Loading maneuver chart data...
Loading SW <> Apogee altitude chart data...
Loading historical data...
Loading historical data...
Loading historical data...
Loading historical data...
Loading historical data...
Loading historical data...
Loading historical data...
Other satellites on launch #140 in the year 2025 (2025-06-28 UTC)

H-2A R/B Visibility forecast

Observer location: undefined°, undefined°

Span
Click to sort rows by Start time (UTC) header in descending order
Start Az.
Max El. time (UTC)
Max El. Az.
Max El.
End time (UTC)
End Az.
7 mins2025-07-01 19:59:41.768Z170.187° S2025-07-01 20:02:41.768Z298.765° NW44.625°2025-07-01 20:06:41.768Z345.482° N
6 mins2025-07-02 09:20:41.768Z350.366° N2025-07-02 09:23:41.768Z283.521° WNW33.12°2025-07-02 09:26:41.768Z224.1° SW
|